Wind_Speed
13 7 6 3 2 1 3 4 3 3 3 5 5 5 6 4 5 2 16 21 15 10 6 5 3 5 12 16 18 19 19 21 23 26 25 25 24 24 24 24 24 24 24 23 22 19 18 17 18
13 10 6 3 3 4 4 3 8 8 1 6 6 5 4 3 6 8 24 18 13 9 6 6 5 7 13 18 18 19 18 20 22 25 26 26 26 24 25 25 25 25 24 22 21 19 16 18 21
12 12 5 2 3 8 4 6 7 2 11 5 4 4 2 3 8 15 17 18 14 10 9 7 6 8 12 18 19 19 20 20 21 21 23 23 22 22 22 23 25 25 24 21 20 18 18 20 21
12 7 4 3 13 5 5 2 5 5 4 5 4 3 3 7 8 13 15 18 13 11 8 7 8 9 12 17 20 20 21 22 23 23 24 23 23 23 22 21 21 22 22 20 20 20 21 22 21
14 4 3 4 8 4 7 6 8 7 6 5 3 4 4 7 8 12 17 18 14 10 8 8 9 10 12 15 19 20 21 21 22 27 28 27 27 25 23 20 17 18 18 17 19 20 22 22 20
5 4 3 13 15 4 6 11 6 6 8 9 7 9 7 8 13 14 17 17 14 11 9 8 9 11 12 13 16 19 20 20 22 25 28 30 30 28 24 18 18 14 15 18 18 19 22 23 22
6 4 7 6 7 4 5 10 11 6 3 2 7 6 6 12 14 16 19 18 16 14 11 9 10 13 14 15 18 19 19 21 23 25 28 30 31 29 23 22 15 18 19 19 18 22 23 24 24
6 3 5 7 13 10 5 7 4 4 1 8 4 3 2 7 17 19 21 20 18 16 13 11 12 14 17 19 20 20 21 21 23 25 28 29 29 28 27 31 29 25 26 25 22 25 23 25 24
9 5 12 11 9 8 5 3 3 3 5 9 2 8 6 12 18 23 25 24 22 20 16 13 13 14 17 18 20 20 20 23 25 26 27 29 28 25 27 27 25 25 29 26 27 24 25 26 25
7 8 12 6 10 8 5 5 4 4 6 8 11 5 10 14 10 25 28 28 27 24 18 14 15 14 18 19 22 22 23 25 29 29 29 30 30 28 28 27 22 24 26 28 26 26 28 27 27
8 14 7 9 19 10 5 8 7 8 13 14 10 13 18 17 13 27 30 30 27 24 19 15 15 15 19 21 23 23 25 28 27 29 31 31 32 27 25 22 27 26 27 28 27 30 31 31 28
7 9 16 14 13 9 7 5 6 11 19 27 26 18 23 22 18 21 30 32 29 26 20 16 16 18 19 21 21 23 25 27 27 29 31 32 33 30 27 28 31 29 29 33 32 36 33 30 26
9 8 10 20 19 18 18 17 17 19 25 32 28 23 21 21 18 19 26 32 31 29 24 19 17 18 19 21 24 20 23 26 27 29 29 31 31 29 30 29 33 32 31 33 36 36 33 29 25
5 18 20 17 18 11 12 20 10 9 22 27 24 22 20 20 18 19 25 30 32 32 30 22 19 19 19 19 23 23 21 22 23 25 27 28 28 28 32 32 34 34 29 32 34 36 34 29 24
10 10 13 12 9 7 10 17 16 27 26 25 27 22 21 20 17 18 22 28 31 33 32 27 22 22 20 19 20 21 20 21 22 21 24 26 26 27 33 35 38 38 34 27 35 37 34 28 24
4 3 4 4 16 11 10 19 8 9 9 11 12 12 10 11 14 14 17 22 30 32 34 29 26 24 21 21 20 20 21 21 22 23 24 27 27 28 34 35 39 38 37 36 37 39 33 29 26
2 6 4 5 11 6 15 15 5 6 2 5 9 13 15 16 16 17 14 17 26 33 32 34 30 27 24 22 21 20 21 20 20 22 22 28 28 31 35 35 38 40 37 40 41 40 34 31 28
8 5 6 9 3 7 13 12 11 18 10 13 14 18 22 23 24 25 22 22 23 31 32 34 32 30 27 24 22 22 21 22 21 21 21 22 28 32 33 37 45 38 41 39 43 39 35 31 29
8 9 12 3 4 4 13 18 15 14 16 14 19 21 24 29 28 29 28 26 26 30 33 38 37 33 30 27 25 25 22 22 22 23 19 16 17 25 24 48 38 41 41 40 43 41 36 33 30
11 14 14 7 8 5 13 20 15 13 20 24 23 22 24 27 29 28 26 26 27 30 33 39 39 35 32 28 24 23 18 21 21 17 15 18 21 13 22 27 37 35 37 39 43 41 38 35 33
11 15 9 11 3 4 10 22 17 13 16 18 15 20 25 27 30 32 27 26 25 28 34 40 39 36 33 28 25 21 18 17 19 19 17 18 17 17 20 28 26 31 32 34 41 41 41 38 34
15 10 9 6 4 7 2 9 9 12 7 6 7 16 23 27 29 32 30 28 27 28 33 39 40 36 33 29 26 22 19 22 23 19 19 20 21 27 26 31 26 28 32 34 41 41 39 37 37
9 9 9 5 4 2 4 5 3 7 1 7 11 16 23 24 24 26 28 32 29 29 34 40 40 37 34 30 26 21 20 20 20 16 18 22 15 30 28 37 33 30 32 31 36 38 38 38 38
10 8 6 4 2 4 7 4 2 3 3 17 17 25 28 29 26 23 25 28 29 28 34 40 39 38 35 31 27 22 19 18 21 20 18 20 20 22 32 37 39 36 36 37 36 34 34 37 41
3 6 2 3 4 4 4 6 7 11 10 11 15 25 29 28 27 23 18 26 28 31 37 39 39 38 35 31 28 21 17 16 19 20 21 21 20 24 20 27 41 41 37 36 43 42 43 42 44
5 5 4 4 3 1 4 4 0 4 7 12 19 24 32 33 31 25 19 22 30 32 38 41 41 39 36 30 28 22 18 18 18 15 20 21 24 22 19 26 26 39 35 34 38 43 39 41 43
4 4 2 3 1 1 2 4 6 2 9 14 20 29 35 35 35 30 19 21 28 33 38 41 42 40 37 30 26 22 20 21 21 18 17 18 20 24 20 23 26 30 29 33 35 42 39 44 42
3 8 4 2 2 2 4 4 6 9 13 12 14 22 35 33 34 29 18 22 25 27 30 33 37 39 36 29 25 20 19 19 21 20 20 19 17 21 22 24 26 26 27 29 40 39 42 43 45
4 3 4 4 2 1 3 3 1 7 7 12 13 19 22 31 35 23 10 8 16 19 27 28 33 36 34 28 22 21 18 18 21 18 16 16 14 16 21 22 24 23 22 23 26 33 39 40 42
3 4 3 2 4 1 1 6 3 6 7 10 13 16 21 29 31 22 13 5 9 16 21 24 30 32 32 26 21 18 16 15 17 17 15 14 14 14 16 19 21 23 25 25 28 32 38 38 41
Wind_Direction
208 194 168 157 206 298 241 241 280 230 215 207 169 170 201 154 168 197 152 164 172 169 167 178 197 217 214 212 206 200 197 200 202 202 197 191 189 187 182 179 176 173 171 170 166 166 167 167 165
201 177 160 130 198 218 231 233 231 229 259 261 245 201 188 197 176 155 160 170 172 178 192 202 214 220 210 207 204 200 197 197 196 195 193 191 190 190 186 183 179 176 174 175 175 178 177 168 157
179 169 152 196 190 228 228 208 191 213 291 251 219 210 190 202 179 169 178 178 177 187 200 209 221 224 213 205 204 203 197 196 192 193 194 191 189 189 187 186 183 180 177 183 182 184 177 167 163
166 152 91 217 229 232 223 236 200 320 343 245 243 240 224 204 167 177 187 184 185 196 204 208 224 224 214 203 206 205 202 201 195 189 192 191 188 188 187 189 186 184 183 182 183 182 178 172 174
169 158 191 228 239 248 241 242 267 292 294 241 275 260 242 213 192 193 190 187 196 205 208 212 222 217 208 203 205 208 208 202 193 191 193 192 189 189 188 188 196 191 179 176 186 192 182 177 181
149 141 206 232 234 235 258 256 257 254 257 290 242 239 241 221 199 194 192 190 198 212 212 212 223 211 197 195 206 210 209 205 203 199 193 192 192 187 185 188 190 200 189 184 199 201 187 180 185
182 173 223 249 254 253 241 234 234 242 278 268 237 219 230 210 200 194 191 195 206 211 214 219 219 205 188 193 209 211 208 210 208 203 196 195 197 187 191 231 198 227 206 201 190 210 191 183 185
201 200 203 218 246 266 242 192 214 216 234 1 160 241 233 214 203 196 199 205 212 216 216 223 223 206 193 197 211 209 209 208 209 206 205 203 205 205 242 202 230 233 213 209 211 199 191 186 185
182 220 233 228 213 227 200 193 197 257 284 324 278 305 307 350 209 204 206 210 217 220 218 224 221 214 201 202 209 217 211 213 210 199 204 198 206 208 206 226 242 231 214 206 203 193 192 186 184
195 221 225 219 231 234 201 195 219 295 304 292 294 339 342 331 284 218 213 218 223 225 221 223 222 228 209 206 205 214 212 214 211 208 210 215 209 217 236 241 217 204 208 200 193 199 189 181 181
203 234 218 226 236 235 227 254 235 264 280 259 286 298 310 310 265 234 229 230 234 229 223 223 224 225 213 210 206 208 216 213 217 215 213 223 229 236 239 212 191 202 203 199 194 195 185 184 185
225 229 231 245 239 229 231 231 236 234 259 276 282 288 294 288 273 251 241 237 234 230 226 224 222 224 220 218 212 208 213 212 214 211 215 224 230 235 224 208 208 205 201 200 194 190 186 186 189
230 229 223 242 251 249 257 248 252 261 267 277 279 280 281 279 277 271 252 242 240 234 229 225 221 228 221 220 221 214 215 219 221 226 232 236 233 224 220 209 204 203 207 190 184 188 187 184 185
195 231 243 246 253 254 252 259 246 255 268 272 274 277 277 279 281 277 254 246 240 236 232 226 224 228 222 222 226 222 225 229 230 235 233 232 228 219 214 206 204 202 209 185 188 190 189 184 187
242 253 252 235 246 240 248 261 247 249 259 258 268 266 267 272 275 271 263 253 247 239 234 228 228 228 223 224 226 219 223 228 232 237 235 224 222 216 214 213 209 205 203 204 198 194 192 187 186
225 180 226 224 219 238 209 258 269 268 245 247 259 263 269 265 270 266 266 260 254 245 237 231 230 229 224 223 224 222 221 229 233 237 236 227 223 222 216 217 215 205 198 190 195 200 191 189 190
219 238 205 251 211 202 204 270 259 148 193 249 276 286 286 279 268 269 274 267 256 250 239 232 231 229 224 219 222 225 226 229 234 239 240 238 230 223 217 216 217 210 198 187 197 197 193 190 191
214 207 222 231 206 217 252 249 270 290 299 294 291 288 283 277 271 266 272 271 273 248 239 234 232 229 222 218 221 224 224 229 233 235 243 241 233 241 236 208 215 198 186 190 196 197 193 196 193
216 229 245 205 222 296 275 277 277 266 273 261 267 269 270 271 268 266 269 269 274 246 232 231 229 226 221 215 218 225 230 231 227 229 236 237 237 231 220 200 201 193 195 192 195 195 195 191 193
214 238 247 267 255 260 278 277 284 260 263 263 258 260 263 267 270 263 261 267 270 244 226 224 225 224 222 220 223 227 239 230 220 217 228 240 208 192 180 186 186 188 190 194 196 196 190 194 195
217 225 219 249 281 260 305 285 278 265 245 255 255 265 273 270 269 266 262 264 264 238 223 220 220 220 220 221 219 221 229 224 210 210 209 209 211 194 190 182 188 191 197 198 200 200 201 197 194
225 210 212 198 213 265 354 293 285 276 266 245 325 315 304 287 279 272 264 254 255 240 221 218 217 216 217 220 218 220 230 208 208 206 198 206 200 207 201 196 193 197 201 204 203 202 206 210 202
223 177 191 164 180 285 240 262 315 258 37 8 342 345 339 334 290 282 270 254 249 233 216 213 214 213 215 218 218 217 220 215 213 201 195 201 204 210 201 202 196 199 199 203 203 203 209 214 212
142 102 68 69 139 242 241 238 219 296 321 336 351 348 348 342 334 296 279 258 242 222 211 213 212 212 214 216 217 216 218 213 200 199 198 203 210 203 210 210 201 205 204 199 198 202 210 218 218
145 139 147 201 196 233 181 237 259 343 21 6 355 350 347 340 333 320 279 251 231 215 213 212 209 212 213 211 215 216 212 211 207 207 202 201 211 216 212 207 214 206 212 219 212 207 203 217 219
172 176 182 210 199 207 225 252 248 49 20 3 359 355 348 340 330 318 293 247 235 218 216 211 206 209 213 208 212 211 211 208 205 209 200 202 202 218 218 213 221 224 211 217 213 207 203 217 222
167 168 84 117 61 255 253 284 255 19 7 3 355 352 345 334 327 317 286 246 231 219 218 215 206 205 210 206 208 208 205 205 200 202 208 211 205 213 222 217 223 209 217 217 214 207 208 216 216
158 143 138 37 137 242 260 258 257 341 344 336 347 355 341 337 331 327 296 240 227 216 214 208 208 205 205 203 207 207 207 206 200 200 208 215 212 210 214 218 206 218 216 221 220 214 212 219 217
142 143 75 110 148 172 307 279 131 310 313 322 330 356 354 346 339 342 360 201 212 202 209 201 199 202 200 203 206 205 211 205 203 206 206 203 206 208 207 213 220 223 228 226 222 219 216 217 224
107 124 131 163 162 204 292 274 36 344 317 323 336 1 10 354 343 13 42 96 166 188 197 196 190 200 196 200 203 195 201 197 199 204 206 207 210 211 211 216 223 226 225 225 222 218 222 231 231
Height
1503 1505 1507 1509 1513 1514 1510 1503 1502 1496 1494 1492 1491 1492 1490 1490 1493 1498 1490 1494 1495 1497 1498 1498 1499 1499 1500 1501 1504 1507 1511 1513 1515 1517 1519 1521 1524 1526 1528 1532 1534 1537 1540 1542 1545 1546 1547 1548 1551
1501 1503 1507 1508 1511 1511 1501 1500 1497 1491 1490 1490 1490 1489 1489 1488 1489 1488 1491 1493 1494 1496 1497 1497 1498 1498 1499 1501 1504 1507 1510 1512 1514 1516 1518 1521 1523 1526 1528 1531 1533 1536 1540 1542 1545 1546 1548 1549 1552
1500 1502 1505 1506 1510 1501 1497 1494 1489 1490 1489 1489 1488 1486 1486 1486 1486 1487 1489 1491 1493 1494 1496 1496 1497 1497 1498 1500 1503 1506 1509 1512 1514 1518 1519 1522 1524 1528 1530 1534 1534 1537 1538 1541 1544 1546 1548 1551 1554
1498 1503 1506 1504 1499 1500 1494 1489 1491 1489 1488 1487 1487 1485 1485 1484 1485 1487 1488 1490 1492 1493 1495 1495 1495 1495 1496 1499 1502 1505 1508 1511 1514 1517 1519 1522 1525 1527 1530 1534 1537 1539 1539 1541 1543 1546 1549 1552 1555
1497 1499 1500 1501 1497 1495 1491 1490 1491 1488 1488 1487 1488 1484 1484 1482 1484 1485 1488 1490 1492 1493 1493 1493 1494 1494 1494 1498 1501 1504 1507 1510 1513 1514 1516 1519 1522 1525 1529 1532 1537 1538 1540 1542 1544 1546 1548 1551 1555
1495 1497 1499 1493 1487 1494 1489 1487 1489 1487 1484 1484 1487 1486 1482 1481 1483 1485 1487 1489 1491 1492 1492 1492 1493 1493 1493 1497 1499 1502 1506 1509 1513 1514 1515 1517 1520 1523 1527 1532 1535 1539 1540 1540 1543 1547 1549 1550 1554
1490 1493 1489 1493 1492 1492 1487 1484 1486 1484 1481 1481 1482 1480 1479 1478 1481 1483 1485 1487 1488 1489 1490 1491 1491 1492 1492 1494 1497 1501 1504 1507 1510 1513 1515 1516 1519 1521 1522 1528 1532 1538 1540 1542 1539 1546 1549 1550 1553
1489 1489 1490 1487 1483 1484 1483 1482 1481 1482 1479 1479 1479 1478 1477 1478 1479 1481 1483 1485 1485 1487 1488 1489 1490 1491 1490 1492 1495 1499 1502 1506 1509 1511 1512 1516 1518 1522 1524 1526 1527 1532 1536 1539 1538 1544 1547 1550 1554
1486 1486 1481 1479 1483 1477 1479 1479 1479 1480 1479 1478 1479 1478 1478 1477 1478 1479 1480 1481 1482 1483 1485 1487 1488 1490 1490 1489 1492 1497 1501 1504 1507 1510 1512 1514 1517 1520 1523 1524 1526 1528 1532 1535 1538 1542 1546 1550 1555
1481 1478 1473 1475 1474 1473 1475 1477 1476 1479 1477 1476 1475 1476 1477 1478 1478 1478 1476 1476 1478 1479 1482 1484 1486 1487 1490 1489 1488 1492 1497 1501 1504 1507 1510 1512 1514 1517 1519 1520 1523 1527 1530 1532 1537 1542 1545 1550 1554
1473 1466 1471 1470 1470 1472 1473 1473 1474 1474 1472 1471 1472 1473 1474 1474 1475 1475 1475 1475 1475 1477 1479 1482 1483 1485 1487 1489 1486 1488 1492 1496 1500 1504 1506 1509 1511 1513 1514 1517 1521 1526 1529 1531 1533 1541 1546 1549 1553
1468 1467 1468 1465 1467 1469 1469 1470 1470 1471 1468 1467 1468 1470 1470 1470 1470 1470 1471 1472 1473 1474 1476 1479 1480 1482 1483 1486 1486 1485 1489 1492 1496 1499 1503 1505 1507 1509 1511 1514 1518 1522 1526 1529 1532 1540 1543 1549 1554
1464 1464 1464 1464 1464 1464 1465 1464 1463 1462 1465 1461 1463 1465 1465 1465 1464 1465 1465 1468 1470 1471 1472 1475 1477 1479 1480 1481 1485 1484 1486 1489 1492 1495 1498 1500 1502 1505 1507 1511 1514 1519 1524 1522 1530 1538 1543 1548 1553
1457 1459 1459 1460 1460 1460 1459 1456 1459 1457 1457 1454 1458 1459 1459 1458 1458 1459 1459 1460 1463 1465 1467 1471 1473 1475 1477 1477 1481 1483 1485 1486 1488 1490 1492 1494 1496 1500 1504 1507 1511 1516 1521 1523 1531 1538 1542 1547 1552
1455 1456 1455 1455 1455 1455 1454 1447 1447 1448 1450 1451 1449 1452 1452 1452 1452 1452 1453 1455 1457 1460 1465 1467 1468 1471 1473 1475 1477 1480 1482 1484 1485 1486 1487 1490 1493 1496 1500 1503 1507 1512 1517 1520 1530 1536 1542 1546 1552
1452 1453 1453 1448 1448 1448 1451 1436 1443 1443 1445 1446 1447 1447 1447 1447 1447 1447 1448 1449 1451 1454 1457 1462 1464 1466 1468 1471 1473 1476 1479 1480 1481 1481 1483 1485 1488 1491 1494 1498 1501 1507 1513 1519 1527 1534 1540 1545 1551
1452 1448 1450 1447 1442 1441 1443 1434 1437 1440 1442 1444 1445 1444 1443 1442 1442 1442 1443 1443 1444 1447 1451 1455 1458 1461 1463 1466 1468 1471 1474 1476 1477 1478 1479 1480 1482 1484 1488 1492 1495 1502 1509 1516 1524 1532 1538 1543 1548
1447 1449 1447 1444 1440 1440 1437 1437 1439 1438 1438 1439 1439 1439 1438 1438 1437 1437 1438 1438 1438 1439 1444 1448 1452 1455 1459 1462 1464 1467 1469 1471 1472 1474 1475 1476 1475 1476 1478 1483 1489 1497 1505 1513 1522 1529 1536 1543 1546
1440 1441 1441 1442 1440 1441 1435 1431 1433 1437 1435 1436 1435 1435 1432 1431 1430 1430 1431 1431 1430 1430 1434 1439 1444 1448 1453 1456 1459 1461 1463 1466 1468 1470 1472 1471 1471 1470 1469 1475 1485 1493 1502 1511 1519 1526 1533 1539 1544
1438 1439 1440 1441 1439 1440 1434 1425 1427 1431 1428 1427 1427 1425 1423 1422 1421 1420 1421 1422 1422 1422 1426 1431 1436 1442 1447 1451 1455 1457 1459 1461 1463 1466 1468 1469 1468 1472 1475 1479 1486 1494 1501 1508 1515 1523 1529 1535 1540
1437 1436 1441 1440 1438 1437 1435 1417 1415 1415 1419 1420 1420 1418 1417 1414 1412 1412 1412 1413 1414 1414 1417 1421 1429 1436 1442 1446 1450 1453 1455 1457 1460 1463 1465 1466 1470 1473 1477 1483 1488 1494 1500 1506 1513 1519 1525 1529 1536
1436 1433 1435 1437 1440 1442 1439 1426 1418 1413 1414 1417 1418 1418 1413 1408 1405 1404 1404 1404 1405 1407 1412 1416 1424 1430 1436 1441 1445 1448 1450 1452 1455 1459 1462 1465 1469 1473 1477 1482 1487 1494 1499 1503 1509 1516 1522 1527 1532
1426 1429 1433 1437 1439 1443 1439 1438 1415 1413 1414 1417 1416 1414 1408 1401 1398 1395 1395 1397 1399 1400 1404 1409 1417 1426 1431 1435 1440 1443 1447 1450 1453 1456 1460 1463 1466 1469 1474 1478 1484 1490 1496 1502 1507 1513 1518 1524 1529
1425 1431 1438 1441 1443 1445 1431 1433 1423 1412 1413 1408 1406 1403 1400 1395 1392 1389 1389 1390 1393 1395 1399 1404 1412 1420 1427 1431 1435 1438 1443 1446 1449 1453 1458 1461 1463 1468 1471 1474 1482 1487 1492 1498 1504 1510 1515 1521 1525
1425 1429 1440 1446 1445 1431 1431 1431 1417 1413 1413 1411 1405 1400 1397 1394 1391 1386 1384 1384 1386 1390 1392 1398 1406 1413 1420 1427 1431 1434 1439 1444 1447 1450 1455 1459 1462 1464 1468 1474 1477 1482 1488 1493 1499 1502 1508 1514 1519
1425 1423 1428 1430 1432 1430 1427 1420 1410 1413 1413 1409 1406 1403 1397 1392 1388 1383 1379 1379 1381 1386 1388 1392 1400 1407 1415 1422 1428 1431 1436 1441 1445 1448 1452 1456 1460 1463 1467 1471 1475 1479 1484 1490 1493 1499 1505 1510 1515
1426 1427 1430 1433 1440 1435 1424 1417 1411 1411 1410 1410 1408 1403 1400 1393 1385 1377 1372 1372 1376 1380 1385 1388 1395 1402 1410 1418 1424 1428 1433 1438 1442 1446 1450 1454 1458 1461 1465 1468 1472 1477 1482 1486 1491 1496 1500 1506 1511
1418 1425 1431 1435 1434 1434 1421 1421 1412 1408 1410 1409 1408 1404 1400 1394 1384 1373 1366 1367 1371 1377 1384 1390 1396 1401 1407 1415 1421 1425 1429 1434 1438 1443 1447 1451 1454 1459 1463 1466 1469 1474 1479 1484 1486 1490 1497 1501 1505
1423 1424 1429 1429 1434 1431 1432 1415 1411 1413 1414 1413 1413 1408 1404 1396 1385 1375 1367 1366 1371 1378 1382 1389 1395 1398 1406 1412 1419 1423 1426 1431 1435 1439 1444 1449 1453 1456 1460 1464 1468 1472 1477 1481 1484 1488 1493 1497 1501
1417 1423 1423 1423 1438 1435 1437 1419 1412 1415 1416 1414 1412 1408 1400 1396 1390 1379 1373 1372 1374 1378 1384 1389 1393 1396 1404 1410 1417 1420 1424 1428 1433 1437 1442 1446 1450 1454 1458 1462 1465 1469 1473 1476 1479 1483 1487 1490 1494